Regional Weather Roundup
Issued by NWS

Home | Current Version | Previous Version | Text Only | Print | Product List | Glossary On
Versions: 1 2 3 4 5 6 7 8 9 10 11 12 13 14 15 16 17 18 19 20 21 22 23 24 25 26 27 28 29 30 31 32 33 34 35 36 37 38 39 40 41 42 43 44 45 46 47 48 49 50
000
ASUS43 KDMX 221406
RWRIA

WEATHER ROUNDUP FOR IOWA
NATIONAL WEATHER SERVICE DES MOINES IA
900 AM CDT TUE AUG 22 2017

NOTE: "FAIR" INDICATES FEW OR NO CLOUDS BELOW 12,000 FEET WITH NO
SIGNIFICANT WEATHER AND/OR OBSTRUCTIONS TO VISIBILITY.

* - THESE STATIONS ARE NOT NWS STATIONS...THUS NOT UNDER NWS
QUALITY CONTROL.  THEY ALSO DO NOT REPORT WEATHER SUCH
AS PRECIPITATION OR FOG.

IAZ001>003-012>014-020>022-031>034-043>046-221500-
   NORTHWEST IOWA

CITY           SKY/WX    TMP DP  RH WIND       PRES   REMARKS
CARROLL *      SUNNY     64  57  77 N13       30.11S
CHEROKEE *     SUNNY     60  56  87 N6        30.15R
DENISON *      SUNNY     63  55  77 N6        30.15S
LE MARS *      SUNNY    104 N/A N/A N6        30.16R
ORANGE CITY *  SUNNY     61  55  82 NW7       30.16R
SHELDON *      SUNNY     59  54  82 NW7G13    30.14R
SIOUX CITY     SUNNY     63  59  87 NW6       30.16R
SPENCER        SUNNY     62  55  77 NW8       30.13R
STORM LAKE *   SUNNY     61  54  77 NW9G15    30.14R
$$

IAZ055>058-069>071-079>083-090>094-221500-
   SOUTHWEST IOWA

CITY           SKY/WX    TMP DP  RH WIND       PRES   REMARKS
ATLANTIC *     SUNNY     66  61  82 N9        30.12R
AUDUBON *      SUNNY     64  57  77 NW10G16   30.13R
CLARINDA *     CLOUDY    66  66 100 N9        30.14R
COUNCIL BLFS * SUNNY     66  64  94 N8        30.15R
CRESTON *      SUNNY     66  64  94 NW13      30.11R
HARLAN  *      SUNNY     64  61  88 N8G14     30.17R
LAMONI         SUNNY     68  64  87 N12       30.08R
RED OAK *      SUNNY     68  64  88 NW12      30.13R
SHENANDOAH *   MOSUNNY   68  64  88 N9        30.13S
$$

IAZ047>049-059>061-072>074-084-221500-
   CENTRAL IOWA

CITY           SKY/WX    TMP DP  RH WIND       PRES   REMARKS
AMES           SUNNY     65  61  87 NW16      30.06R
ANKENY *       SUNNY     66  61  82 NW13G20   30.06R
BOONE *        SUNNY     63  57  82 NW14G21   30.07R
CHARITON *     SUNNY     66  63  88 NW14G22   30.05R
DES MOINES     MOSUNNY   68  61  78 NW13      30.05R
GRINNELL*      SUNNY     65  61  84 NW14      30.04R
KNOXVILLE *    SUNNY     68  61  77 NW10      30.03R
MARSHALLTOWN   SUNNY     65  61  87 NW17G24   30.02R
NEWTON *       SUNNY     66  61  82 NW13      30.04R
PELLA *        SUNNY     68  61  77 NW10G16   30.05R
PERRY *          N/A     65  62  89 NW9       30.09R
$$

IAZ004>006-015-016-023>025-035-036-221500-
   NORTH CENTRAL IOWA

CITY           SKY/WX    TMP DP  RH WIND       PRES   REMARKS
ALGONA *       SUNNY     61  57  88 NW9G17    30.10R
CLARION *      SUNNY     61  61 100 NW14      30.08R
ESTHERVILLE    SUNNY     59  56  89 NW12      30.10R
FORT DODGE *   SUNNY     61  54  77 N8        30.08R
FOREST CITY *    N/A     61  55  82 NW13G20   30.06S
WEBSTER CITY * SUNNY     63  57  82 NW14      30.06S
IOWA FALLS *     N/A     64  59  86 NW13G18   30.06R
$$

IAZ007>011-017>019-026>030-037>042-050>054-066-221500-
   NORTHEAST IOWA

CITY           SKY/WX    TMP DP  RH WIND       PRES   REMARKS
CEDAR RAPIDS   CLOUDY    66  63  90 NW14      29.98R
CHARLES CITY * PTSUNNY   63  61  94 NW12G24   30.03R
CLINTON *      CLOUDY    68  65  90 NW12      29.95R
DECORAH *      PTSUNNY   64  61  88 NW15      29.98R
DUBUQUE        CLOUDY    66  62  87 NW9       29.96R
MONTICELLO *   CLOUDY    66  63  88 NW10G16   29.96S
OELWEIN *      MOSUNNY   66  63  88 NW14G21   30.00R
WATERLOO       MOSUNNY   65  60  84 NW16      30.00R
$$

IAZ064-065-067-068-078-221500-
   EAST CENTRAL IOWA

CITY           SKY/WX    TMP DP  RH WIND       PRES   REMARKS
DAVENPORT      CLOUDY    67  63  87 NW9       29.97S
IOWA CITY      CLOUDY    69  63  81 NW10      29.99R
MT. PLEASANT * CLOUDY    68  66  92 W12G17    30.00R
MUSCATINE *    CLOUDY    70  64  83 NW12      29.97S
QUAD CITIES    CLOUDY    69  63  81 W16G22    29.95R
$$

IAZ062-063-075>077-085>089-095>099-221500-
   SOUTHEAST IOWA

CITY           SKY/WX    TMP DP  RH WIND       PRES   REMARKS
BURLINGTON     CLOUDY    68  66  93 NW8       29.98R
FAIRFIELD *    CLOUDY    68  64  88 NW14      30.00S
FORT MADISON * CLOUDY    68  66  94 NW12      30.00R
KEOKUK *       CLOUDY    68  66  94 NW10G17   29.99R
OSKALOOSA *      N/A     67  63  86 NW12      30.03R
CENTERVILLE *    N/A     68  64  88 NW12      30.06R
OTTUMWA        MOSUNNY   68  65  90 NW12      30.02R
WASHINGTON *   MOSUNNY   68  66  94 NW14      30.00R
$$

ABBREVIATIONS USED IN REMARKS
   TC - TEMPERATURES IN CELSIUS
  WCI - WIND CHILL INDEX
   HX - HEAT INDEX
  VSB - VISIBILITY
$$





USA.gov is the U.S. government's official web portal to all federal, state and local government web resources and services.